User: anonymous   Login
Location: Unspecified
(0.0000°N, 0.0000°E)
Time: 21:47:39
(UTC+00:00)
Language:

USA-159 - Orbit

View from above orbital plane
View from above orbital plane
View from above satellite
View from above satellite

Ground track
Ground track

The orbit data is extracted from the following two-line orbital elements,

1 26880U 01033A   19114.22883819 -.00000307  00000-0  00000+0 0  9998
2 26880  10.3722  33.2297 0000770 317.9400 253.8410  1.00279998  5435
Epoch (UTC): 24 April 2019 05:29:31
Eccentricity: 0.0000770
inclination: 10.3722°
perigee height: 35780 km
apogee height: 35787 km
right ascension of ascending node: 33.2297°
argument of perigee: 317.9400°
revolutions per day: 1.00279998
mean anomaly at epoch: 253.8410°
orbit number at epoch: 543

The dashed part of the orbit path shows where the satellite is in the earth's shadow,  

DLR